Location: Poughquag
(41.6090°N, 73.6820°W)
Time: 05:05:41
(UTC-04:00)

A-11 Canister half - Pass Details

Date: 30 May 2020
Orbit: 1514 x 1686 km, 47.2° (Epoch: 06 July)

Event Time Altitude Azimuth Distance (km) Brightness Sun altitude
Rises 22:38:12 0° 287° (WNW) 4,657 12.3 -19.2°
Reaches altitude 10° 22:43:09 10° 265° (W) 3,678 11.3 -19.7°
Maximum altitude 22:47:25 14° 236° (WSW) 3,368 10.8 -20.1°
Drops below altitude 10° 22:51:43 10° 208° (SSW) 3,705 10.7 -20.5°
Enters shadow 22:52:52 - 202° (SSW) 3,889 10.8 -20.7°
